Regional Weather Roundup
Issued by NWS

Home | Current Version | Previous Version | Text Only | Print | Product List | Glossary Off
Versions: 1 2 3 4 5 6 7 8 9 10 11 12 13 14 15 16 17 18 19 20 21 22 23 24 25 26 27

000
ASUS45 KBOU 061507
RWRCO

WEATHER ROUNDUP FOR COLORADO
NATIONAL WEATHER SERVICE DENVER/BOULDER CO
800 AM MST TUE DEC 06 2016

NOTE: "FAIR" INDICATES FEW OR NO CLOUDS BELOW 12000 FEET WITH NO
SIGNIFICANT WEATHER AND/OR OBSTRUCTIONS TO VISIBILITY.

COZ001>005-013-030-031-061600-
...NORTHWEST COLORADO...

CITY           SKY/WX    TMP DP  RH WIND       PRES   REMARKS
CRAIG          MOCLDY     2  -7  66 VRB3      29.91F
HAYDEN         CLOUDY     1  -9  60 E10       29.89S WCI -14
MEEKER         MOCLDY     7   1  76 CALM      29.87F
MOUNT WERNER   NOT AVBL
STEAMBOAT SPGS MOCLDY    -5 -13  71 CALM      29.89S
WALDEN           N/A    -13 -22  64 SE5       29.84S WCI -25
$$

COZ006>008-011-061600-
...WEST CENTRAL VALLEYS...

CITY           SKY/WX    TMP DP  RH WIND       PRES   REMARKS
GRAND JUNCTION FAIR      20   8  60 E7        29.90F WCI  11
MONTROSE       FAIR      17   9  70 SE5       29.92F WCI  10
EAGLE          MOCLDY    16   1  53 CALM      29.90F
RIFLE          FAIR      17   8  67 E6        29.91F WCI   9
DELTA          NOT AVBL
NUCLA          FAIR      19  12  73 E3        29.90F
$$

COZ017>023-064>068-061600-
...SOUTHWEST COLORADO...

CITY           SKY/WX    TMP DP  RH WIND       PRES   REMARKS
DURANGO        CLOUDY    21  15  78 N3        29.89S
CORTEZ         CLOUDY    24  21  88 SE7       29.88S WCI  16
PAGOSA SPRINGS FAIR      17  14  87 CALM      29.90R
TELLURIDE      CLOUDY    25   3  39 SE7       29.85F WCI  17
WOLF CREEK PAS FAIR       9   5  85 SW15      29.87S WCI  -8
$$

COZ009-010-012-014-032>034-037-058>063-061600-
...CENTRAL COLORADO...

CITY           SKY/WX    TMP DP  RH WIND       PRES   REMARKS
ASPEN          MOCLDY    12   6  77 CALM      29.82F
BUENA VISTA    CLOUDY    14   1  56 E6        29.80R WCI   5
COPPER MTN     CLOUDY    12   3  67 MISG      29.70S
BERTHOUD PASS  SNOW       1 -11  55 W23G31    29.64F VSB 1/2 WCI -21
COTTONWOOD PAS CLOUDY    27   1  33 NW6       29.75S WCI  20
GUNNISON       FAIR       3  -1  83 CALM      29.88F
KREMMLING      CLOUDY    10   3  72 CALM      29.90S HAZE
LEADVILLE      CLOUDY    10   0  63 NE8       29.73F WCI  -2
MONARCH PASS     N/A      5   3  92 SW24G31   29.85R WCI -17
SALIDA         FAIR      13  -1  54 SE16G22   29.90S WCI  -3
SUNLIGHT       CLOUDY     9   5  85 SW15G24   29.78S FOG     WCI  -8
WILKERSON PASS FAIR      10   1  67 SW12G18   29.74F WCI  -4
$$

COZ069>075-061600-
...SAN LUIS VALLEY/SANGRE DE CRISTO MOUNTAINS...

CITY           SKY/WX    TMP DP  RH WIND       PRES   REMARKS
ALAMOSA        FAIR       6   2  83 SW3       29.84S
LA VETA PASS   FAIR      21   1  42 N13G26    29.82R WCI   9
SAGUACHE       FAIR      12   3  67 NW9G16    29.86S WCI   0
$$

COZ035-036-038>040-061600-
...NORTHERN COLORADO FRONT RANGE...

CITY           SKY/WX    TMP DP  RH WIND       PRES   REMARKS
DENVER INTL AP FAIR      12   0  58 S8        29.92S WCI   0
DMNS CITY PARK   N/A     17  -1  44 S9G20     29.93S WCI   6
AURORA         PTCLDY    17  -1  46 S16       29.92R WCI   1
FRONT RANGE AP PTCLDY    19   1  45 S7        29.93S WCI  10
ERIE MUNI ARPT FAIR      17  -1  43 S5        29.94S WCI  10
BOULDER MUN AP FAIR      18   0  45 CALM      29.93R
CENTENNIAL     FAIR      14  -1  51 SE14      29.90S WCI  -1
BROOMFIELD     PTCLDY    19   0  42 S8        29.91S WCI   9
FORT COLLINS   FAIR      12   0  57 SE5       29.95S WCI   4
LONGMONT       FAIR      13   3  62 CALM      29.97R
$$

COZ041-046-047-076>085-087-088-061600-
...PIKES PEAK/PALMER DIVIDE AND SOUTHERN FOOTHILLS...

CITY           SKY/WX    TMP DP  RH WIND       PRES   REMARKS
COLO. SPRINGS  FAIR      11   0  61 E10       29.93S WCI  -3
A. F. ACADEMY  FAIR       8  -2  63 CALM      29.89S
SCHRIEVER AFB  NOT AVBL
ELLICOTT       FAIR     N/A N/A N/A SE6         N/A
FALCON         FAIR      10   1  65 S8        29.90F WCI  -1
FORT CARSON    FAIR      13  -1  53 SE9       29.93S WCI   1
LIMON          FAIR       4   1  88 CALM      29.98R
MONUMENT HILL  FAIR      10   1  67 S14       29.87S WCI  -5
TRINIDAD       FAIR      15   0  51 S3        29.97S
$$

COZ042>045-048>051-090-091-061600-
...NORTHEAST COLORADO...

CITY           SKY/WX    TMP DP  RH WIND       PRES   REMARKS
GREELEY ARPT   FAIR      11   1  64 CALM      29.99R
AKRON          CLOUDY    13   4  67 W8        29.97S WCI   2
BURLINGTON     FAIR      12   4  70 W7        30.03R WCI   1
WRAY           MOCLDY    18   9  68 W10       30.03S WCI   6
STERLING       FAIR       7   1  78 SW6       30.00S WCI  -3
HOLYOKE        FAIR      18   9  68 W12       30.02R WCI   5
FORT MORGAN    FAIR       7  -4  62 W3        30.00R
$$

COZ086-089-092>099-061600-
...SOUTHEAST COLORADO...

CITY           SKY/WX    TMP DP  RH WIND       PRES   REMARKS
PUEBLO         FAIR      15   4  61 CALM      30.02R
LA JUNTA       FAIR      20  10  65 CALM      30.05F
LAMAR          FAIR      13   7  77 CALM      30.08S
SPRINGFIELD      N/A     13   5  70 NW6       30.05R WCI   4
$$




USA.gov is the U.S. government's official web portal to all federal, state and local government web resources and services.